Flag for Germany Weather past 2 weeks in Konstanz, Baden-Württemberg, Germany

Now
63 °F

Overcast.


Feels Like: 63 °F
Forecast: 46 / 58 °F
Wind: 3 mph from West

Location: Konstanz

Current Time: Sep 21, 2014 at 12:17:49 PM

Latest Report: Sep 21, 2014 at 11:00 AM


Visibility: 22 mi

Pressure: 30.02 "Hg

Humidity: 84%

Dew point: 58 °F

Location of KonstanzLocation

Historic Weather in Konstanz — Graph

°F

Konstanz temperature yesterday

Maximum temperature yesterday: 72 °F (at 3:00 PM)
Minimum temperature yesterday: 61 °F (at 8:00 AM)
Average temperature yesterday: 64 °F

Past Weeks' High & Low Weather Summary

 TemperatureHumidityPressure
High79 °F (Sep 6, 5:00 PM)99% (Sep 7, 7:00 AM)30.15 "Hg (Sep 7, 7:00 AM)
Low49 °F (Sep 12, 7:00 AM)43% (Sep 6, 6:00 PM)29.80 "Hg (Sep 17, 6:00 PM)
Average63 °F83%29.98 "Hg
* Reported Sep 6 11:00 AM — Sep 21 11:00 AM, Konstanz, Weather by CustomWeather, © 2014

Note: Actual official high and low records may vary slightly from our data, if they occured in-between our weather recording intervals... More about our weather records

Advertising

Konstanz weather history for previous 24 hours

 ConditionsComfort  
Time TempWeatherWind HumidityBarometerVisibility
11:00 AM
Sep 21
63 °FOvercast.3 mph84%30.02 "Hg22 mi
10:00 AM62 °FOvercast.5 mph84%30.02 "Hg22 mi
9:00 AM60 °FOvercast.3 mph92%30.02 "Hg19 mi
8:00 AM59 °FRain. Overcast.2 mph94%30.03 "Hg7 mi
7:00 AM59 °FRain. Overcast.1 mph98%30.02 "Hg6 mi
6:00 AM59 °FThundershowers. Overcast.1 mph97%30.02 "Hg6 mi
5:00 AM59 °FPassing clouds.1 mph98%30.01 "Hg9 mi
4:00 AM59 °FClear.No wind95%30.02 "Hg16 mi
3:00 AM59 °FPassing clouds.2 mph94%30.03 "Hg14 mi
2:00 AM60 °FPassing clouds.2 mph94%30.03 "Hg15 mi
1:00 AM62 °FPassing clouds.2 mph91%30.03 "Hg19 mi
12:00 AM60 °FClear.1 mph93%30.03 "Hg28 mi
11:00 PM
Sep 20
62 °FPassing clouds.1 mph90%30.02 "Hg25 mi
10:00 PM62 °FClear.1 mph87%30.02 "Hg43 mi
9:00 PM63 °FPassing clouds.3 mph87%30.02 "Hg25 mi
8:00 PM64 °FPassing clouds.2 mph82%29.99 "Hg25 mi
3:00 PM72 °FPartly sunny.2 mph62%29.98 "Hg25 mi
2:00 PM70 °FOvercast.3 mph73%29.99 "Hg19 mi
1:00 PM70 °FOvercast.2 mph76%29.99 "Hg22 mi
12:00 PM69 °FOvercast.1 mph74%30.00 "Hg22 mi
Weather by CustomWeather, © 2014

See weather overviewHow to use our weather pages